Wind_Speed
2 3 2 2 2 2 3 4 5 5 4 4 4 4 3 2 2 1 1 1 1 2 1 2 2 3 4 6 7 8 9 9 5 3 2 2 1 5 4 3 3 3 4 2 2 3 3 2 1 2 3 1 1 1 0 2 1 3 3 3 3 3 2 2 4 2 1 5 7 7 3 2 3 4 2 2 5 4 3 4 6 6 7 7 6 5 6 6
3 3 2 2 2 3 3 3 3 4 4 3 3 3 2 1 1 1 1 0 0 0 1 2 2 4 5 6 7 8 11 8 4 0 4 2 4 6 4 3 3 3 3 0 3 4 4 1 1 2 3 2 0 0 2 1 1 2 2 3 1 2 3 2 2 3 2 3 5 5 3 1 0 3 2 3 4 4 5 5 8 6 7 6 6 6 6 7
3 3 3 3 2 3 3 3 3 3 3 2 2 1 1 0 0 1 1 1 1 1 1 2 3 4 5 6 7 9 10 6 5 1 5 3 5 5 4 4 4 4 3 1 3 3 4 2 1 3 3 1 1 1 2 1 2 1 2 3 2 5 4 3 3 4 3 3 2 3 3 2 0 2 2 3 3 5 5 3 5 6 7 5 6 6 6 7
3 3 2 2 2 3 3 3 3 3 3 2 2 1 1 1 1 1 2 2 1 2 2 3 3 4 5 6 7 8 8 6 2 3 3 4 5 4 5 5 4 3 1 1 2 1 2 2 2 3 3 1 2 2 1 2 2 1 2 2 5 3 3 4 2 4 4 3 2 1 0 3 1 1 3 3 6 6 2 6 4 4 6 4 5 5 5 6
3 3 2 2 2 2 3 4 4 4 3 3 2 2 1 1 1 2 2 2 2 2 3 3 3 4 5 5 6 7 6 4 2 4 2 4 5 5 6 5 4 3 2 1 1 1 3 3 2 3 3 1 2 2 1 3 3 1 1 4 5 1 2 4 3 4 3 2 2 2 3 3 1 2 5 5 7 2 4 6 7 7 6 4 5 5 5 6
3 3 3 3 2 3 3 4 5 4 4 3 3 3 2 1 2 3 3 3 3 3 3 3 3 3 4 4 5 5 5 1 3 3 3 4 4 6 6 5 3 3 2 2 1 2 3 3 3 3 3 1 0 0 2 3 2 2 2 4 2 2 2 4 3 3 1 2 3 3 3 4 4 6 4 5 3 4 5 4 6 6 5 5 4 5 5 6
3 2 3 2 3 3 4 5 5 5 4 4 4 3 3 2 2 3 3 3 3 3 3 3 3 3 3 3 4 4 5 1 4 5 4 4 4 5 5 4 3 3 2 3 3 3 2 3 4 2 3 2 0 1 2 0 3 3 1 4 2 1 0 2 2 2 2 4 3 2 4 5 8 5 2 2 3 7 5 4 5 6 5 4 4 5 5 6
4 3 3 3 3 3 4 5 5 5 5 4 3 3 3 3 3 3 3 3 3 2 2 2 2 2 1 2 4 4 4 2 4 5 5 4 3 4 4 4 2 2 2 3 2 3 2 4 2 1 4 1 1 1 1 2 4 3 1 4 2 1 2 2 2 3 4 5 3 3 5 9 7 2 4 3 7 7 4 5 5 5 5 4 5 5 5 5
6 5 4 4 4 4 5 6 6 6 5 4 4 3 3 3 3 3 3 3 2 2 1 1 1 1 1 2 4 4 1 4 5 4 5 4 5 5 4 2 1 1 2 2 1 3 2 2 0 1 3 2 1 0 1 3 2 1 2 2 1 3 3 4 5 6 6 4 3 5 9 9 2 1 4 3 8 7 6 5 5 5 5 5 5 5 5 5
7 7 5 4 5 4 5 6 6 6 5 4 4 3 4 4 3 3 3 3 2 1 1 1 1 1 2 3 5 4 2 5 4 3 4 5 5 5 3 3 2 3 3 1 2 2 1 2 1 1 4 1 1 1 0 3 1 2 2 2 5 5 4 5 6 6 5 5 7 8 9 5 4 2 5 5 8 7 7 6 5 5 5 5 4 5 4 4
7 7 6 5 5 5 5 6 6 6 5 4 3 4 5 4 3 3 3 2 2 1 0 1 1 1 2 4 6 3 3 4 3 3 4 5 6 5 4 4 3 3 3 2 2 1 1 1 1 1 2 0 2 1 1 1 1 1 3 6 7 7 7 8 8 6 5 5 7 8 9 3 5 5 4 8 9 8 8 7 6 5 4 4 4 4 3 2
9 8 6 6 6 5 5 6 6 6 5 3 3 4 4 3 3 3 2 2 1 1 0 1 2 1 2 6 5 1 4 4 3 3 4 4 6 6 5 4 3 3 3 3 2 1 1 1 3 3 1 1 2 1 1 1 1 2 3 6 5 7 9 10 7 5 6 4 5 5 7 8 10 7 5 11 9 8 8 7 6 5 4 4 3 3 2 1
11 9 8 8 6 5 6 6 6 6 5 3 4 5 4 3 2 2 2 2 1 1 1 2 3 1 3 5 1 4 5 4 4 3 4 4 4 4 4 4 3 3 2 2 3 4 2 1 3 2 2 3 2 2 1 2 2 3 4 4 5 8 7 6 5 4 6 3 4 5 6 8 10 9 9 10 10 9 9 7 7 6 4 4 3 3 3 2
12 11 10 11 9 6 6 6 6 6 5 4 4 5 4 2 2 2 2 1 1 1 2 2 3 2 3 2 3 3 5 5 4 4 5 5 4 3 3 3 3 3 2 2 4 5 4 2 1 1 2 3 1 2 3 4 3 4 3 3 4 6 2 7 6 6 7 3 3 6 6 6 6 10 8 9 10 10 9 9 8 6 6 5 4 4 4 3
14 13 10 12 12 9 7 7 7 6 5 5 4 4 2 2 2 1 2 1 1 2 2 2 4 3 5 3 2 2 5 5 5 6 7 7 5 4 4 4 4 4 3 4 6 6 4 2 3 2 3 1 1 3 5 4 5 4 4 4 4 4 2 7 7 5 3 3 6 7 6 6 6 8 8 8 9 9 8 8 8 7 7 6 5 5 4 4
15 14 13 14 14 10 8 7 7 6 4 4 4 3 2 3 2 1 2 1 2 3 2 1 4 3 6 2 3 2 4 5 6 7 9 9 5 4 7 7 6 5 5 6 6 6 3 2 1 1 1 2 4 4 5 5 5 5 5 6 4 5 4 3 6 3 2 4 8 9 6 6 4 8 7 8 9 8 7 8 8 7 7 6 5 5 4 4
15 13 15 14 12 10 9 6 5 5 2 4 4 2 2 2 2 2 2 3 3 3 1 1 2 3 4 1 2 3 4 5 7 7 9 10 6 6 9 7 6 6 7 7 5 4 2 2 1 1 3 4 5 4 4 5 5 4 5 5 6 7 6 4 3 5 4 4 7 10 9 10 3 8 8 8 9 9 8 9 9 7 6 6 5 4 4 4
16 14 13 12 12 13 9 5 7 4 2 3 2 1 1 2 3 2 3 4 5 3 1 2 2 4 4 4 3 2 6 6 7 7 8 9 8 7 6 4 6 8 8 5 4 5 3 2 2 4 4 5 5 5 6 6 5 4 3 4 5 6 7 8 3 4 4 5 7 9 10 12 10 7 10 9 10 11 10 9 8 7 7 6 5 4 4 4
18 16 14 13 14 13 7 8 9 5 3 1 1 4 4 2 2 2 4 4 4 3 2 4 7 3 0 5 5 5 7 8 8 7 7 8 8 6 4 4 7 7 6 4 5 6 4 3 3 5 6 7 9 9 9 9 6 6 5 6 7 6 7 6 1 4 1 4 8 11 11 12 13 9 10 11 11 11 11 10 7 6 6 5 5 4 4 4
20 19 17 15 14 11 8 10 9 6 4 1 1 2 2 2 3 3 6 6 9 9 4 3 9 4 2 5 7 8 8 7 4 4 8 9 9 8 6 6 6 6 6 5 6 4 3 5 6 8 9 9 11 13 13 9 5 6 7 8 9 8 9 6 1 4 1 4 9 11 13 14 14 13 9 11 12 11 11 11 9 7 6 6 6 5 5 5
21 20 18 16 15 12 11 11 11 7 5 2 3 4 2 2 3 1 3 8 14 16 12 6 5 3 1 6 9 9 6 3 2 4 9 10 9 8 7 7 7 6 7 6 4 3 3 7 9 11 11 9 8 10 12 9 6 8 8 8 9 8 9 6 3 4 3 3 9 11 13 16 14 14 13 9 12 12 13 13 12 10 8 6 7 7 6 5
23 21 20 17 15 14 12 12 14 9 6 5 6 7 4 4 2 3 2 5 11 16 16 8 3 4 2 6 9 8 3 4 5 6 10 11 10 8 7 9 9 7 7 6 4 3 6 9 12 13 7 4 4 5 9 10 9 9 7 7 8 6 8 5 5 5 3 3 7 10 11 15 14 14 15 12 13 13 11 10 9 10 10 8 8 8 7 6
24 22 20 18 16 14 12 14 15 9 8 8 9 8 4 4 1 4 2 6 6 10 13 11 10 11 8 4 8 9 7 9 8 9 14 12 9 8 7 10 10 8 9 10 8 7 6 7 11 10 4 4 5 6 7 8 8 8 7 7 7 6 6 5 4 4 5 5 6 8 9 12 14 14 16 13 8 5 3 2 2 5 8 8 8 8 8 8
25 23 20 18 18 15 12 14 13 9 10 11 11 11 4 1 1 3 2 6 6 6 8 9 9 11 11 6 10 13 9 10 8 9 17 15 9 6 8 10 11 9 8 12 14 12 10 1 2 6 6 7 8 7 8 7 7 9 10 9 8 8 8 7 3 2 5 8 7 7 9 10 11 14 14 5 3 2 3 3 4 5 6 6 7 7 7 7
26 24 21 21 18 14 14 14 12 12 12 11 13 14 9 3 1 3 3 4 7 4 3 5 5 8 10 9 12 12 7 11 8 8 18 16 9 7 7 7 8 10 11 14 13 13 11 3 5 6 6 7 9 8 9 8 7 8 10 12 12 12 10 10 6 2 6 7 5 5 7 6 4 8 8 6 4 5 6 8 10 10 9 7 7 7 7 6
27 24 22 23 19 17 17 10 11 14 12 12 12 10 11 8 1 0 1 4 8 3 4 6 7 9 11 11 13 8 3 9 2 6 15 11 5 4 5 6 4 7 9 10 9 7 4 4 4 6 6 7 8 8 10 9 8 7 4 7 11 12 11 11 8 4 5 5 2 4 7 6 3 6 5 7 7 9 9 11 12 12 11 10 8 8 8 8
29 25 24 25 22 23 17 6 12 16 8 10 12 11 11 11 6 2 1 5 8 6 7 4 4 8 10 11 15 9 2 4 6 5 8 6 4 2 5 8 5 4 3 2 5 3 4 7 5 6 6 8 8 9 9 10 8 4 2 0 6 8 9 10 9 7 6 5 2 6 6 8 8 10 7 7 7 9 11 13 12 12 12 11 10 9 10 9
30 27 27 27 27 29 17 7 16 17 7 5 10 15 13 11 9 3 2 6 4 6 6 2 2 4 6 8 13 9 1 4 6 2 2 1 4 2 7 12 8 8 7 6 7 2 4 8 8 9 9 8 8 6 6 11 9 2 4 2 0 2 5 6 7 7 6 6 6 7 6 6 8 8 7 8 9 12 12 13 13 13 12 12 11 10 10 10
31 29 30 30 29 28 17 9 14 15 14 10 9 15 16 10 7 1 2 6 2 4 3 3 4 4 8 9 9 6 3 2 1 0 3 1 2 0 5 9 9 9 10 11 10 1 3 2 3 7 8 7 4 2 2 7 6 2 5 4 4 1 1 2 5 5 5 7 9 8 9 7 8 6 7 7 8 12 10 7 10 13 12 12 11 11 11 10
33 31 33 31 30 31 21 12 14 15 17 14 8 14 17 8 5 4 6 6 3 3 3 4 5 7 12 12 8 7 5 2 3 4 5 3 3 2 2 2 5 6 6 9 9 1 4 2 1 3 3 1 4 7 5 1 3 6 5 3 2 2 2 2 4 3 5 9 10 12 14 10 7 4 6 6 3 5 4 4 8 11 12 12 12 12 12 10
35 33 35 35 33 34 24 12 17 19 16 15 13 16 13 4 2 7 8 2 1 3 5 5 6 10 15 14 8 10 8 4 7 9 6 4 5 5 3 3 3 4 5 6 7 4 4 3 2 2 1 2 5 5 3 3 3 5 4 3 3 3 2 3 4 4 7 10 5 8 13 14 9 4 4 4 3 3 2 5 9 11 13 12 11 11 12 11
37 35 38 38 33 34 25 14 20 21 15 18 19 13 7 4 4 9 7 3 1 6 9 9 9 12 16 14 8 10 10 5 8 10 8 7 7 8 9 8 7 6 6 7 6 4 5 8 7 4 1 5 6 3 3 2 3 5 5 6 5 4 3 5 5 5 8 6 1 2 7 11 11 8 9 5 4 5 3 4 7 11 13 12 12 11 11 10
39 38 40 40 35 34 29 19 21 22 19 22 17 4 3 6 8 13 11 5 2 3 7 9 11 13 15 12 7 9 7 5 9 10 8 9 8 9 12 11 11 8 4 5 7 4 3 6 9 7 3 8 11 8 5 4 6 9 8 7 7 6 6 7 7 7 7 3 2 2 3 6 7 7 13 10 4 7 5 5 4 8 12 12 12 11 10 10
40 39 42 42 38 34 29 24 24 24 25 23 12 3 4 8 11 13 15 10 3 4 6 9 12 11 12 8 5 9 6 4 11 9 7 9 8 8 11 13 16 10 2 4 5 6 6 4 9 11 5 11 16 13 8 5 7 10 9 7 8 6 7 8 7 7 5 1 2 3 4 5 4 2 3 3 6 7 5 5 4 5 9 10 10 11 10 11
41 41 42 40 39 37 32 29 29 28 25 16 8 7 8 9 11 12 12 8 5 5 6 10 11 10 9 5 4 9 4 2 10 9 6 10 8 9 10 12 16 13 7 7 3 5 8 5 8 8 4 12 16 12 9 5 5 7 6 8 9 6 6 7 3 1 2 2 2 5 4 5 3 2 5 5 6 6 6 6 6 6 8 9 9 10 10 10
42 41 39 38 41 43 39 35 34 33 22 10 7 9 10 10 8 7 8 8 8 9 10 9 8 7 8 5 5 8 3 1 9 8 6 10 9 10 11 9 15 17 12 8 3 5 6 3 6 5 2 9 8 7 10 6 3 5 6 9 4 1 3 6 2 2 0 7 5 6 5 5 3 3 6 7 5 6 6 6 7 8 9 10 9 9 10 10
39 35 32 35 42 45 43 41 40 34 17 9 11 11 10 11 8 5 7 10 11 14 11 6 7 8 9 7 6 10 6 3 9 8 5 7 7 11 13 10 14 20 17 10 4 4 4 2 4 5 5 4 2 1 5 2 1 4 5 6 3 3 3 4 5 2 4 10 6 6 9 8 6 5 5 8 6 7 8 8 8 8 9 10 9 10 11 11
37 28 22 32 43 43 44 45 41 29 11 7 13 13 11 12 13 10 10 11 13 15 11 9 8 9 10 8 8 13 12 7 10 9 6 7 6 10 16 11 11 19 19 10 2 2 4 4 3 3 3 4 2 2 4 3 3 1 1 2 3 3 5 5 5 5 7 10 7 7 11 9 8 6 6 9 11 10 11 10 10 10 11 11 10 11 13 12
28 15 11 30 44 42 45 47 34 17 7 8 13 13 12 13 15 15 13 12 12 13 13 11 10 10 11 11 9 13 14 10 11 9 7 7 5 10 17 11 10 17 18 12 3 1 4 5 3 0 1 5 5 5 7 8 6 0 2 3 3 3 4 5 6 4 6 8 8 8 9 7 8 9 11 14 14 13 14 12 11 12 12 11 11 12 13 13
15 6 6 26 44 43 45 40 19 6 6 12 14 11 10 11 12 16 17 15 11 10 11 13 12 11 11 12 10 11 12 11 11 9 8 9 7 8 14 12 10 12 14 13 7 2 3 5 4 0 1 5 6 8 11 11 9 7 6 7 6 3 1 3 5 5 6 7 7 8 8 5 3 6 12 16 15 15 15 12 11 11 12 12 12 12 13 13
7 5 4 23 44 46 39 22 8 6 7 10 15 12 10 11 11 16 19 16 12 7 5 9 13 12 10 12 11 9 9 9 11 9 7 10 10 6 10 13 10 10 9 8 7 6 5 5 5 3 4 7 7 6 7 6 7 9 9 10 10 8 5 4 8 7 5 6 6 6 9 6 1 1 3 7 10 12 13 12 10 10 12 12 11 13 13 13
4 5 5 27 49 45 26 9 6 8 7 10 13 7 5 10 11 15 17 16 15 9 3 5 12 14 10 11 12 9 9 7 10 11 8 11 13 8 11 15 12 14 11 6 9 8 3 2 6 6 5 6 3 3 2 1 2 4 6 8 9 9 9 9 8 4 4 6 5 4 9 5 2 2 2 2 2 4 8 10 10 9 10 11 10 12 12 12
3 4 6 33 57 43 16 8 9 8 9 12 11 4 4 8 10 13 16 16 15 12 8 6 10 13 12 11 12 11 10 7 10 13 10 10 13 10 12 16 15 15 11 5 6 4 4 1 6 5 4 3 3 3 2 2 1 5 7 8 9 10 10 8 4 0 3 7 5 5 9 5 2 1 2 3 2 3 4 6 9 8 8 9 10 11 11 11
3 2 2 28 56 44 15 10 13 10 12 14 12 8 5 7 11 15 16 17 15 11 12 9 8 11 11 9 10 12 13 10 11 13 11 9 8 4 11 18 17 14 10 5 7 7 4 4 4 3 5 5 4 5 4 3 4 7 8 9 9 9 6 3 1 1 6 9 8 7 10 4 3 1 0 1 0 3 3 4 7 7 7 8 9 9 10 11
2 2 1 12 32 27 12 11 14 12 14 16 14 14 13 9 10 16 17 17 15 12 12 12 11 11 10 8 9 12 15 14 12 10 9 9 4 2 7 17 18 14 8 5 8 9 6 6 7 7 8 9 9 7 5 6 5 4 7 11 13 13 12 7 3 5 9 9 8 10 10 2 3 1 2 2 3 4 5 5 5 5 6 8 9 9 10 10
2 3 2 4 8 9 6 8 11 10 11 13 10 13 18 15 10 12 15 15 16 16 14 12 12 13 12 12 11 12 15 16 13 8 8 8 4 1 3 10 15 14 7 7 10 8 2 3 11 14 13 13 13 7 3 6 7 8 14 16 17 17 17 10 6 9 10 6 9 15 12 4 4 6 6 5 5 4 5 6 6 6 7 8 9 9 9 9
3 3 4 5 4 6 6 6 10 12 13 14 9 8 17 21 13 8 10 12 14 17 15 10 10 13 15 16 14 13 14 14 14 13 12 8 4 2 1 2 7 9 8 6 7 6 1 4 13 18 18 19 18 9 5 9 11 14 17 18 18 16 16 15 14 16 11 7 12 15 13 11 11 11 10 8 7 6 6 8 8 8 9 8 8 9 10 10
4 2 3 3 2 5 6 5 8 14 19 18 10 7 15 21 17 10 10 10 11 13 12 9 13 19 21 19 14 11 12 13 14 16 15 9 5 4 2 1 4 4 7 3 1 3 3 8 12 14 17 21 20 12 7 9 11 12 14 17 18 18 20 21 21 20 15 12 14 9 13 17 14 13 14 11 9 10 9 8 7 7 8 8 9 9 10 10
2 1 0 1 1 4 4 2 2 9 18 18 12 12 15 19 21 16 9 7 8 12 13 13 18 22 23 20 14 12 13 14 16 17 15 11 7 6 5 3 3 3 5 4 2 2 3 7 10 11 13 20 20 15 10 8 9 11 12 15 17 20 25 24 22 22 20 22 21 9 11 16 12 13 15 12 9 8 5 5 6 7 8 9 9 9 9 10
1 1 1 1 1 1 2 3 3 6 10 13 13 14 14 18 22 18 12 11 11 13 15 19 22 21 21 21 18 16 17 19 20 18 14 11 8 7 8 6 4 5 5 5 3 2 4 5 5 6 8 16 17 16 14 11 11 13 13 14 18 21 23 22 21 21 19 23 24 13 9 11 7 8 9 6 4 4 5 5 6 6 8 9 8 8 8 9
0 1 1 1 3 4 2 3 4 4 6 8 11 13 14 18 22 17 14 15 15 12 13 20 24 19 16 19 20 21 23 24 24 19 13 12 12 11 10 7 8 8 8 7 5 5 6 4 0 3 7 14 15 15 15 11 8 12 16 21 23 19 16 18 20 19 19 22 22 14 12 9 6 7 4 4 5 6 7 7 6 5 6 8 8 8 8 9
1 1 0 1 2 5 5 3 4 5 4 4 9 12 13 14 16 14 10 9 14 16 13 17 20 14 11 17 22 25 24 20 15 10 6 7 9 9 7 6 10 12 10 9 6 5 7 6 3 5 7 12 11 9 8 4 4 10 17 22 22 16 13 15 18 21 22 20 16 14 13 8 7 8 5 4 5 7 7 7 6 6 7 7 8 8 8 8
Wind_Direction
186 180 189 193 190 219 211 185 178 173 181 180 175 184 180 175 170 154 101 61 41 20 345 345 338 338 340 335 343 339 336 340 331 321 331 310 204 162 156 143 151 151 136 126 247 260 251 229 37 307 251 192 322 40 91 358 339 266 243 234 235 185 162 154 172 149 82 122 128 133 143 233 156 145 146 193 219 216 214 150 110 85 75 69 67 38 17 20
182 187 196 193 191 226 219 188 181 173 180 187 182 184 168 151 114 104 79 25 336 297 293 329 329 339 337 334 342 332 336 334 272 21 31 356 169 149 137 136 149 147 128 93 264 269 281 304 26 270 248 191 100 102 206 14 304 274 278 244 256 73 77 61 105 75 31 113 124 125 114 246 214 102 136 250 202 195 244 168 148 132 106 94 67 47 35 33
186 189 195 197 199 219 212 191 181 173 183 186 174 172 147 128 156 184 208 238 243 270 300 325 329 336 329 334 335 328 337 313 237 80 41 77 133 139 136 135 144 151 137 330 290 286 308 347 321 273 256 215 87 223 215 26 306 286 289 259 82 78 87 80 89 75 42 55 119 130 111 235 278 88 188 269 267 242 247 129 162 161 119 102 70 53 43 43
188 192 199 208 208 214 206 190 186 182 191 180 163 172 163 179 218 223 226 244 263 287 308 323 330 329 324 332 323 328 332 284 209 83 58 92 111 133 130 127 141 146 122 309 279 270 288 281 279 279 261 212 116 224 220 44 329 320 312 334 79 102 113 100 87 70 52 24 339 43 59 263 105 122 233 264 280 249 165 60 56 92 90 87 73 55 46 48
191 192 194 206 210 213 204 197 195 195 197 185 178 177 179 193 230 251 255 270 287 300 319 328 332 324 322 325 319 329 317 271 118 103 119 102 108 123 121 122 139 120 108 206 232 234 249 252 257 256 251 222 147 216 97 54 327 279 41 47 77 54 95 110 83 62 58 10 323 298 288 310 51 238 241 245 271 277 82 52 52 66 69 68 61 49 47 46
209 205 199 190 189 202 204 202 202 203 202 196 190 188 204 217 238 255 268 282 295 311 325 329 333 329 322 319 321 320 295 290 113 161 144 113 122 125 125 121 130 117 130 222 240 246 250 249 243 242 252 252 229 302 67 63 308 282 105 93 81 7 56 116 102 87 75 278 253 276 320 340 294 265 256 251 263 75 74 59 70 75 77 76 64 55 51 47
230 231 231 205 187 198 203 206 205 203 201 202 200 201 215 226 245 259 271 284 300 316 322 328 332 329 324 312 309 283 265 43 115 181 157 138 146 139 138 123 126 131 182 249 241 248 255 256 254 266 266 251 220 82 68 38 254 281 121 121 104 23 36 121 120 147 222 259 257 316 328 285 267 270 296 252 115 99 96 86 90 93 96 95 79 69 60 54
251 255 254 242 224 212 210 208 205 204 199 206 213 212 225 230 248 262 269 282 297 306 309 317 329 339 341 310 297 267 245 94 114 178 177 171 167 159 145 126 133 128 232 264 283 284 251 255 270 270 262 270 9 100 76 270 224 267 338 118 123 209 216 173 178 210 230 252 259 269 269 259 258 308 294 226 120 116 123 110 113 115 113 106 86 76 70 63
251 256 254 248 245 234 226 214 208 205 195 211 227 228 240 239 250 257 265 277 279 293 305 295 319 8 309 290 286 275 245 99 119 168 183 188 189 175 151 151 224 196 236 263 282 271 241 262 277 298 305 25 321 29 84 274 226 31 22 116 203 222 220 213 224 229 224 238 226 234 253 249 229 19 272 192 127 129 137 132 135 137 128 111 97 85 77 70
242 256 263 261 256 240 231 223 216 207 199 219 235 246 255 249 252 252 260 264 261 286 297 294 335 37 317 274 260 269 81 102 126 154 176 186 179 168 166 180 219 238 244 222 232 251 274 323 54 350 319 343 251 32 113 284 358 30 342 274 258 249 240 223 234 229 213 230 215 229 259 241 124 203 243 146 135 148 146 148 149 151 137 114 107 95 81 77
234 247 261 268 262 244 228 228 224 209 210 234 251 260 262 253 249 248 253 255 261 289 308 326 242 294 310 264 261 273 106 117 134 145 165 178 167 170 198 188 188 245 259 221 207 335 1 1 76 245 305 170 186 169 184 345 18 339 311 283 250 237 237 222 229 219 201 226 210 227 262 229 140 219 220 137 149 163 157 158 157 160 138 114 98 89 85 86
231 233 250 261 259 254 239 233 224 214 218 241 267 273 265 250 245 247 247 250 260 240 188 171 200 237 286 259 262 218 139 134 146 154 160 171 173 181 197 198 193 220 266 255 164 101 350 114 215 242 10 323 230 165 134 112 306 303 287 287 266 245 241 218 207 199 206 211 176 208 259 238 205 202 143 134 154 164 167 166 161 163 140 127 116 119 146 133
231 228 241 258 261 255 248 239 224 221 222 230 279 285 262 248 245 245 248 252 256 213 186 195 194 186 272 264 192 142 156 155 156 156 159 156 163 183 193 204 197 190 249 291 131 147 169 138 252 263 31 296 277 84 141 173 272 286 250 279 294 272 241 179 153 168 199 177 147 197 265 252 201 165 129 137 158 166 174 175 172 170 155 158 158 165 173 155
226 219 229 255 266 258 250 245 232 230 230 234 278 275 250 245 236 238 251 239 232 212 190 193 190 191 255 251 111 159 187 174 158 153 165 150 136 149 161 173 169 170 167 133 140 146 147 133 253 182 86 315 28 118 225 206 221 265 258 247 261 273 194 137 145 175 186 158 170 204 260 265 157 138 142 151 164 172 181 182 175 176 167 169 173 180 181 155
223 213 220 249 261 262 251 241 239 235 233 244 267 265 238 228 225 233 241 210 174 188 169 192 194 211 263 235 121 190 193 176 173 177 174 155 154 153 135 135 122 122 125 131 142 131 127 163 212 192 109 64 166 204 245 232 218 230 259 253 224 244 183 143 149 178 183 147 189 205 252 256 148 138 155 154 172 185 192 188 176 180 174 171 179 182 179 151
230 211 207 232 249 259 255 246 238 219 223 260 268 254 213 214 220 211 208 165 141 150 128 202 200 242 281 243 128 176 186 186 189 194 187 168 171 156 133 129 113 109 110 113 128 123 124 179 232 298 137 178 213 229 255 252 236 211 230 264 249 242 251 174 142 160 162 142 192 213 254 276 141 137 160 163 179 195 204 198 184 183 177 176 182 177 173 154
240 220 208 221 240 252 256 245 208 181 207 269 266 245 213 205 194 188 149 131 135 131 137 279 185 233 267 177 166 198 162 171 180 184 191 176 163 150 143 141 128 121 114 111 131 142 153 178 152 262 218 224 229 225 247 249 246 219 205 247 263 253 261 256 157 135 162 183 215 219 237 270 231 141 163 180 185 198 212 212 196 188 183 181 179 172 175 165
240 235 221 218 228 241 249 211 175 167 222 263 268 121 154 173 172 163 137 134 114 99 248 245 192 240 238 178 172 136 118 138 160 166 181 172 157 158 159 158 148 143 139 137 169 179 190 196 204 241 224 217 219 210 224 238 270 283 245 259 275 251 245 258 245 136 173 211 236 232 232 257 251 176 168 183 193 202 214 219 204 193 189 180 182 179 167 164
235 237 231 222 225 236 233 184 173 180 193 237 49 97 98 106 147 174 177 170 158 180 241 187 191 231 16 151 123 87 108 129 143 153 164 160 154 161 165 159 163 172 175 175 186 186 195 187 196 239 229 212 215 213 225 246 286 310 299 291 289 273 259 266 259 107 166 241 247 252 252 258 259 233 182 174 189 204 215 220 206 195 193 182 188 181 164 173
233 233 229 224 228 237 224 187 175 177 172 127 66 135 141 189 214 198 182 201 217 230 283 191 198 226 73 132 124 112 119 128 141 150 156 157 157 162 165 164 172 199 213 200 183 168 190 213 213 227 228 226 224 220 233 257 291 295 289 282 274 270 270 268 163 112 108 259 256 258 263 265 266 262 233 186 183 201 212 214 208 200 196 188 187 178 170 171
231 231 227 220 219 229 226 192 169 165 171 168 212 223 246 230 236 234 175 214 221 230 253 241 217 266 98 122 144 147 133 147 174 157 161 164 167 174 173 176 187 204 212 198 154 121 192 223 227 231 239 247 238 225 236 253 265 266 271 274 268 261 268 267 162 134 136 236 264 267 268 268 263 265 263 213 183 203 212 213 217 206 194 187 186 183 176 157
229 228 226 216 211 223 226 190 167 164 176 189 220 237 309 346 338 23 20 251 226 220 235 238 239 254 156 121 162 174 202 198 169 164 172 171 183 197 177 180 206 204 178 168 154 173 212 229 235 237 242 235 232 233 240 249 253 257 258 260 264 260 270 261 158 151 180 219 271 276 273 271 265 264 263 233 199 208 214 215 220 201 189 187 186 185 177 166
228 226 221 211 208 222 219 185 167 167 191 199 216 229 293 335 13 36 334 278 259 211 216 216 218 222 195 163 179 183 211 212 198 181 173 175 191 208 191 187 215 210 174 188 207 215 221 233 235 227 194 186 219 229 232 246 248 245 244 247 254 250 258 254 171 157 203 226 278 289 282 274 269 261 254 238 204 192 151 136 202 190 191 189 185 184 179 178
226 225 221 205 205 217 201 177 173 188 204 208 224 228 251 310 78 15 295 272 265 209 202 205 214 221 203 168 172 186 213 227 225 181 170 181 182 187 208 204 217 219 199 208 216 230 238 219 174 191 184 214 227 219 216 235 246 236 234 236 249 249 244 250 237 173 225 233 245 270 282 273 260 250 242 217 123 140 139 168 209 206 203 185 172 174 177 179
222 224 218 199 202 203 175 174 194 203 200 210 233 231 228 235 52 352 313 271 251 210 173 197 202 214 191 148 161 181 217 229 228 167 169 187 181 166 204 210 222 226 216 218 222 241 243 143 122 180 181 209 223 224 212 217 251 249 231 225 239 255 255 259 269 284 276 259 198 213 272 279 248 239 222 152 157 206 188 204 215 206 198 187 178 175 172 168
220 221 211 197 197 182 167 187 207 195 196 216 229 214 209 216 182 346 295 275 256 202 138 181 179 183 172 155 159 152 225 226 210 129 164 190 202 176 207 190 210 239 227 224 230 252 233 134 152 193 187 206 221 238 221 210 244 263 249 216 230 253 262 262 267 258 274 288 154 183 261 282 277 260 223 155 187 204 187 206 213 201 195 189 187 181 170 166
218 215 204 194 189 177 172 193 186 177 193 223 215 194 192 198 196 216 236 273 261 172 146 183 182 174 165 160 161 150 206 175 96 116 164 185 194 177 234 194 174 234 222 211 235 231 164 167 185 197 211 221 223 242 225 207 232 258 15 341 226 249 259 256 257 248 261 291 227 192 240 276 274 267 241 175 199 216 202 206 204 197 195 186 183 177 169 168
217 211 199 192 187 181 177 168 172 179 194 179 180 188 182 181 195 214 218 256 263 137 143 164 101 124 132 154 170 165 111 124 132 163 95 128 195 175 225 215 209 213 183 182 225 218 144 183 193 197 215 226 226 247 205 195 224 248 63 40 199 268 276 260 252 251 260 277 253 208 204 252 265 259 230 198 225 244 229 211 196 190 189 182 179 171 163 163
214 208 197 191 188 187 189 184 180 194 198 161 147 179 173 166 189 207 245 240 202 113 121 134 126 116 131 155 182 167 107 107 183 120 93 150 236 262 230 231 240 220 189 207 233 326 71 177 214 208 219 227 211 39 92 198 220 142 112 90 78 82 292 246 246 257 252 250 251 221 195 229 270 256 216 204 227 245 243 211 180 177 178 178 175 165 159 159
212 206 195 191 191 193 200 208 200 202 196 185 169 163 157 156 181 185 220 229 171 121 98 134 156 151 151 158 181 188 171 110 89 128 146 159 189 246 289 272 256 225 194 223 249 281 103 94 338 232 231 213 107 67 34 25 129 138 149 128 123 186 182 211 235 247 257 251 243 223 206 218 268 254 206 213 220 224 216 148 150 163 171 174 168 163 160 158
210 204 194 193 197 194 194 202 202 199 192 188 168 147 147 155 198 203 214 242 16 146 138 148 148 148 162 165 174 191 188 144 133 154 156 143 172 194 187 177 203 212 215 234 246 227 182 183 183 165 116 108 112 95 56 56 125 163 185 189 200 211 181 217 223 202 247 256 236 215 208 210 234 238 203 200 120 121 137 139 158 166 169 169 163 162 161 157
209 204 195 196 199 195 194 194 191 193 186 170 154 142 157 165 205 227 212 94 72 184 154 154 159 164 177 179 173 176 176 162 161 174 175 168 182 190 194 194 170 184 231 224 214 215 219 218 188 138 156 188 175 160 119 118 189 198 195 192 209 226 213 227 221 203 236 252 96 152 198 213 236 243 241 237 124 118 97 102 153 167 167 164 159 160 158 155
209 204 198 198 199 198 199 192 185 187 175 158 148 138 185 180 210 223 207 174 173 160 131 147 166 172 179 183 174 159 164 171 170 181 188 181 194 202 206 212 193 201 247 199 191 198 212 215 187 173 193 195 194 195 181 173 186 195 192 188 200 217 235 243 234 228 237 232 90 124 179 232 257 241 238 238 132 108 94 85 115 155 161 159 155 157 154 153
208 203 202 202 202 202 197 190 189 181 164 155 150 141 176 207 223 213 211 213 172 95 110 141 153 164 178 182 159 156 163 177 169 172 184 184 204 209 205 214 209 214 243 185 197 200 218 246 184 182 173 176 193 212 214 184 178 197 198 199 211 217 239 251 246 246 252 157 135 167 172 219 234 153 202 188 109 103 104 104 93 120 147 150 149 153 153 157
207 203 204 203 205 205 196 192 192 176 162 161 163 165 182 217 226 212 211 198 146 115 118 135 142 157 184 184 155 171 178 184 174 174 190 193 207 208 200 207 205 204 201 204 206 186 227 261 164 161 141 166 187 214 216 188 178 195 196 212 225 229 248 263 267 256 306 331 202 189 219 246 230 116 113 117 123 127 122 127 131 128 139 145 152 159 162 165
204 201 202 202 205 205 196 194 191 176 167 169 171 183 201 213 216 206 194 178 163 144 131 144 159 169 189 181 173 188 193 103 174 178 206 210 224 221 211 203 195 197 197 194 190 177 219 257 138 134 152 173 190 207 193 190 174 169 192 211 214 17 288 265 244 108 3 279 246 180 223 262 254 217 148 137 149 146 140 149 153 146 147 157 166 168 171 171
198 199 200 203 206 203 196 194 187 176 172 183 185 198 215 219 222 199 184 187 166 143 144 179 187 183 192 187 186 187 175 147 175 186 195 194 226 222 211 210 194 198 203 201 219 209 218 265 161 172 186 168 2 319 182 211 137 150 196 201 124 45 324 273 261 252 237 259 251 183 216 228 218 224 147 149 176 167 165 169 159 152 158 174 181 175 176 174
196 199 202 207 205 199 195 192 183 174 173 188 197 209 220 226 225 211 200 187 158 154 184 215 195 184 194 196 188 175 173 172 176 190 190 181 220 202 190 201 199 198 203 202 245 220 204 245 199 182 184 132 93 196 192 221 217 191 275 193 147 224 231 209 234 258 244 250 260 224 225 225 218 215 158 175 196 182 171 170 169 170 173 184 185 176 177 173
193 194 215 209 201 196 193 188 181 178 177 179 198 213 217 219 215 208 203 188 170 176 201 216 206 202 206 206 186 164 176 186 168 177 199 192 208 186 178 187 196 199 197 186 193 189 187 229 226 325 29 133 147 193 197 196 195 242 315 231 209 253 244 216 218 245 247 250 267 253 231 222 222 207 180 188 197 182 171 173 183 182 180 186 182 174 177 175
187 194 232 199 194 193 188 183 180 197 196 187 197 206 203 201 202 203 199 191 189 194 207 216 211 211 214 209 192 164 178 195 178 184 206 188 182 185 182 183 184 189 188 184 200 189 166 215 226 47 83 162 177 202 205 198 182 181 208 210 201 193 256 279 246 234 242 248 256 260 254 240 213 199 192 194 193 181 171 170 181 181 179 183 179 174 177 177
187 223 213 180 185 183 178 178 191 206 212 204 203 207 195 183 189 200 198 197 204 208 217 224 217 217 214 205 198 170 170 199 196 197 211 196 200 204 184 185 177 155 157 181 210 202 177 203 214 180 183 207 207 199 208 210 187 190 200 200 201 195 189 240 240 218 218 245 246 262 270 261 129 86 221 194 184 174 165 163 167 174 176 175 175 176 176 177
194 237 174 170 177 173 167 187 202 189 215 218 215 224 174 170 190 198 193 198 211 214 200 220 221 223 217 206 207 181 165 193 201 203 217 209 213 212 180 181 168 145 146 174 202 197 145 174 221 216 204 208 192 104 82 348 265 244 233 213 208 203 196 212 230 202 180 228 242 268 275 271 96 60 8 29 90 118 136 149 152 162 167 162 166 173 175 178
204 236 162 170 173 168 165 209 194 193 223 222 233 261 138 171 196 194 188 193 205 209 201 204 215 222 224 217 213 194 178 192 200 204 218 218 218 210 176 169 156 151 160 167 177 163 68 122 224 241 237 190 125 115 104 61 293 257 245 221 213 216 211 212 237 4 198 218 211 235 255 253 97 73 25 22 21 67 97 128 133 138 149 156 164 168 173 178
202 208 145 176 176 172 175 201 188 201 217 218 235 240 219 220 207 196 195 194 197 201 205 209 205 214 224 218 212 201 190 200 209 204 211 217 214 184 165 167 159 165 182 177 163 159 147 181 199 235 245 227 195 194 189 173 201 226 228 214 215 223 213 192 11 320 244 228 201 222 252 245 110 101 25 22 187 142 120 108 118 131 147 160 167 169 174 177
198 183 31 186 183 180 190 198 189 198 206 208 220 225 231 240 215 208 209 204 202 201 205 214 207 207 212 200 210 213 201 209 218 202 204 212 195 90 171 175 173 184 192 154 152 165 178 179 172 196 228 228 222 217 196 180 182 212 224 212 211 211 201 195 207 225 239 234 206 224 250 258 97 188 224 203 197 166 137 122 126 144 155 162 170 174 177 178
215 205 162 196 207 209 214 199 193 199 201 200 209 220 225 227 217 211 212 214 214 209 214 218 205 207 211 201 213 222 212 217 223 214 214 207 175 87 188 184 190 196 171 119 143 157 165 190 191 205 219 226 234 237 141 136 157 196 212 210 209 208 204 204 217 226 230 233 228 230 234 227 202 213 215 203 199 192 163 158 168 175 171 171 173 174 177 181
232 219 175 181 230 243 239 219 202 201 199 196 194 204 216 223 224 201 198 215 215 210 219 221 194 200 207 204 213 222 215 217 222 224 224 205 146 81 86 220 220 192 140 127 159 149 117 223 213 218 227 235 245 249 165 163 191 207 209 209 208 205 202 204 218 225 215 220 245 232 213 219 218 203 206 205 196 200 193 186 186 181 177 175 170 169 174 181
225 225 181 182 204 221 232 231 211 209 204 197 198 205 208 217 221 206 193 207 211 207 213 218 212 212 212 208 211 217 215 218 223 225 222 202 148 116 131 266 250 177 128 127 167 119 169 228 222 220 233 242 247 248 213 204 221 220 209 209 204 198 201 206 218 225 211 221 246 216 189 215 215 193 202 204 194 201 199 187 172 157 163 165 165 170 176 181
212 235 246 254 219 190 188 187 244 234 212 198 203 218 211 213 217 214 199 189 206 209 205 213 221 219 216 213 210 213 213 216 224 224 218 206 177 156 181 212 213 163 141 149 168 142 191 239 228 213 233 246 244 240 229 224 241 239 224 214 201 198 205 207 215 222 216 228 241 224 205 227 215 188 197 195 193 200 176 146 137 142 157 163 169 178 181 185
207 226 168 139 240 171 135 172 219 259 229 205 207 215 215 218 220 217 205 194 203 205 202 217 226 219 214 213 212 220 219 217 225 225 209 201 194 182 200 204 162 149 170 176 176 178 197 237 231 200 235 251 243 238 235 230 237 245 244 232 217 210 208 207 215 219 218 231 240 238 244 247 209 174 179 158 148 139 120 143 152 150 162 165 174 186 184 189
246 331 102 140 214 195 160 168 185 225 237 213 213 215 214 221 222 218 213 209 212 206 196 215 227 223 215 214 214 223 226 224 230 233 215 203 207 204 204 192 158 158 181 186 172 176 190 215 237 150 225 250 242 230 233 234 238 251 253 243 232 219 207 206 215 215 213 225 231 229 241 239 165 133 119 98 131 153 161 171 159 156 172 172 181 191 188 193
138 356 116 168 220 198 191 178 169 200 225 213 223 226 222 227 227 221 221 219 220 221 212 216 227 227 219 217 217 223 230 232 238 249 239 215 213 210 200 187 175 172 177 182 178 178 184 199 209 175 214 252 242 209 210 216 230 244 246 241 231 217 203 207 216 217 215 218 220 222 233 223 142 136 154 151 166 179 182 178 171 176 179 182 195 195 190 195
Height
810 810 810 810 810 810 810 809 810 810 810 810 810 810 811 811 811 811 811 810 811 810 810 810 810 810 809 808 807 806 806 805 804 804 804 804 804 805 805 805 806 806 806 806 807 807 806 805 805 805 804 804 806 807 808 807 807 809 810 814 814 812 814 812 810 812 813 815 817 817 818 819 821 820 818 819 820 820 819 820 824 825 827 829 831 831 831 831
810 810 810 810 810 810 809 809 809 809 810 810 810 810 810 810 810 810 810 810 810 810 810 810 810 809 808 808 807 806 805 804 804 804 804 805 804 805 805 806 806 806 807 807 807 807 805 805 805 805 804 806 807 808 809 808 808 810 811 812 812 812 813 809 808 810 811 814 816 817 819 820 820 820 819 821 821 820 820 821 823 826 828 830 830 831 831 831
810 810 810 810 810 809 809 809 809 809 809 809 809 810 810 810 810 810 810 810 810 811 810 810 810 809 808 808 807 806 805 804 804 805 805 805 805 805 806 806 807 807 807 808 808 807 806 806 805 805 805 807 808 808 810 810 809 810 811 813 813 813 813 811 810 813 813 814 816 817 820 820 819 818 819 821 821 819 819 821 822 824 827 829 831 832 832 832
810 810 810 809 809 808 808 808 808 809 809 809 809 809 810 809 810 810 810 810 810 810 810 810 809 809 808 807 807 807 804 805 806 806 806 806 806 806 806 807 807 808 808 808 808 808 807 806 805 805 806 809 809 808 810 812 812 810 812 814 813 812 814 814 813 814 815 816 817 818 820 820 817 818 819 821 822 818 817 821 823 824 827 829 831 832 833 833
809 809 809 808 808 808 807 808 808 808 808 808 809 809 810 810 810 810 810 811 810 810 810 809 809 808 808 807 807 806 806 811 809 805 807 806 806 807 807 808 808 808 808 809 808 808 808 806 805 806 807 809 810 810 812 812 812 812 812 814 813 812 816 816 815 817 818 818 819 819 820 819 817 819 818 820 823 820 821 825 826 827 829 830 832 833 833 834
809 808 808 807 807 807 807 807 807 808 808 808 809 809 810 810 810 810 810 810 810 810 810 809 809 808 808 807 807 805 808 813 808 805 807 806 807 808 807 808 808 808 809 809 809 808 807 806 807 809 808 809 811 813 814 812 812 815 815 814 814 814 817 816 816 820 820 820 821 820 819 819 820 820 816 818 821 824 827 828 828 829 831 832 833 834 834 835
808 807 807 807 807 807 806 807 807 807 808 808 809 809 810 810 810 810 810 810 810 810 809 809 809 808 808 807 807 806 806 808 805 805 807 806 808 808 808 809 808 809 809 809 809 807 808 808 808 810 810 811 812 813 815 813 812 815 816 816 817 817 817 817 818 821 821 821 820 819 821 821 821 820 817 818 823 826 829 829 830 831 832 833 834 834 835 836
807 807 807 807 806 806 807 806 807 807 808 808 809 809 810 810 810 810 810 810 810 810 809 809 809 808 808 808 808 806 805 805 805 806 807 807 808 808 809 809 809 810 809 809 808 807 808 809 809 810 811 813 812 813 815 815 813 814 816 816 818 819 817 817 819 820 821 820 820 821 823 820 818 820 819 819 823 827 829 830 831 832 832 833 834 835 836 837
806 806 806 806 806 806 807 806 807 807 808 808 809 809 809 810 810 810 810 810 810 810 809 809 809 808 809 808 808 808 806 804 805 806 806 807 808 808 809 809 810 810 810 810 809 809 809 810 810 810 812 813 812 813 816 817 817 816 817 818 818 818 816 817 818 819 820 819 820 823 822 817 816 820 819 818 823 827 828 830 830 831 832 833 835 836 836 837
806 806 806 806 806 806 807 807 807 807 808 808 809 809 809 809 810 809 809 809 809 809 809 809 809 809 809 808 808 810 807 804 806 806 807 807 808 809 809 810 810 810 810 810 809 809 809 810 809 808 811 812 812 815 816 818 819 817 818 818 817 817 815 816 817 816 818 818 819 822 819 815 818 821 819 818 824 826 827 829 830 830 831 833 834 835 836 837
806 806 806 806 806 806 806 807 807 807 808 808 809 809 809 809 809 809 809 809 809 809 809 809 809 809 809 808 809 809 806 805 806 806 807 807 808 809 809 810 810 810 810 809 810 809 809 810 808 809 812 812 813 816 817 817 818 818 819 818 815 815 814 814 815 815 817 818 816 819 818 816 821 821 815 818 824 825 826 828 829 829 830 832 833 835 836 837
805 806 806 806 806 806 806 806 806 807 808 808 809 808 808 809 809 809 809 809 809 809 809 809 809 809 809 808 807 806 805 806 806 806 807 807 808 809 809 810 810 810 810 809 810 810 811 810 809 812 814 812 814 818 818 817 818 818 819 819 815 812 812 810 812 815 816 817 815 817 821 816 816 816 813 818 823 823 825 826 828 829 830 832 833 835 836 836
804 805 806 806 806 806 806 806 806 807 807 808 808 808 808 808 808 809 808 809 809 808 808 809 809 809 809 808 804 804 805 805 806 807 807 808 809 809 809 810 810 810 810 810 810 811 812 811 811 812 813 813 815 818 818 817 818 818 817 820 818 814 811 809 812 816 817 818 815 819 825 811 803 810 814 818 822 822 824 824 826 828 830 832 833 834 835 836
803 804 805 805 805 806 805 806 806 806 807 808 808 808 808 808 808 808 808 808 808 809 809 809 809 809 809 806 803 804 804 805 806 807 807 808 809 810 810 810 810 811 810 811 811 811 812 812 812 812 813 815 816 818 818 817 819 818 818 819 820 819 815 811 813 815 817 819 815 821 827 809 801 811 815 817 820 821 821 821 823 826 828 831 832 834 834 835
802 802 804 805 805 805 805 805 805 806 807 807 807 807 807 808 808 807 808 808 808 809 809 809 809 809 808 804 803 804 804 805 806 807 807 808 809 810 810 810 811 811 811 812 811 812 813 812 813 813 816 816 817 820 819 817 816 816 823 822 816 819 816 810 812 813 815 819 816 821 824 808 803 812 814 816 819 819 818 817 820 824 826 829 831 832 833 834
801 801 803 804 804 804 804 805 805 806 806 806 807 807 807 807 807 808 808 807 808 809 809 809 809 809 809 805 803 804 804 805 805 807 807 808 809 809 810 811 811 812 812 812 812 813 813 813 815 816 817 818 818 820 819 820 818 815 823 823 816 817 814 810 813 813 812 816 816 819 818 806 804 812 814 816 818 818 817 815 818 822 824 827 829 830 831 833
800 800 801 802 803 803 804 804 804 805 806 806 806 806 807 807 807 808 807 808 809 808 809 809 808 809 807 804 804 803 802 804 805 806 807 808 809 809 810 811 811 812 812 813 813 813 813 815 819 818 816 818 816 818 826 830 823 814 817 820 815 813 814 813 814 813 813 816 816 816 817 810 804 810 814 815 816 817 816 813 815 819 823 825 827 828 830 831
800 800 800 801 802 803 803 803 804 805 806 806 806 807 807 807 807 807 808 808 809 810 811 809 810 813 808 802 802 801 801 803 805 806 807 808 809 810 810 810 811 811 812 814 814 814 816 816 819 819 817 819 816 819 830 827 816 812 815 818 815 811 813 813 811 812 813 815 815 814 815 810 803 805 810 812 813 814 813 811 812 816 820 823 825 827 829 830
799 799 799 800 801 802 802 803 804 805 806 806 807 807 807 807 807 807 808 809 808 808 809 805 805 809 805 799 799 801 802 803 805 806 807 808 809 810 810 810 810 811 813 816 816 814 816 819 823 824 820 819 816 815 818 811 807 812 813 816 818 816 814 809 808 812 812 815 815 812 811 806 801 800 803 808 810 811 810 808 811 815 819 821 824 825 828 830
797 798 799 799 800 801 801 802 803 804 806 806 807 808 807 806 806 805 806 807 803 798 798 797 796 798 798 797 799 802 803 804 805 806 807 807 809 810 810 811 812 813 814 815 816 814 816 823 824 821 815 810 809 808 807 805 807 813 815 817 818 819 815 806 809 813 812 816 814 808 808 804 800 797 796 802 806 808 808 807 810 814 817 820 822 825 827 829
796 797 798 798 800 800 801 802 802 804 805 806 808 807 802 801 803 802 801 800 796 793 794 793 793 795 795 796 799 800 801 804 805 805 807 807 808 810 810 811 815 817 813 811 815 816 820 824 818 808 804 802 802 804 804 807 810 814 817 819 817 818 814 805 810 815 813 819 815 805 807 804 800 798 793 797 804 805 803 804 807 810 814 818 820 823 826 829
794 795 796 798 798 799 800 801 802 803 804 806 807 805 801 800 802 801 800 798 792 791 792 792 794 795 795 797 798 798 799 802 804 805 806 807 808 809 809 811 814 813 810 812 818 822 824 821 809 801 800 802 804 805 807 810 813 816 817 821 821 816 812 807 811 816 815 820 816 808 811 805 797 797 793 793 797 797 797 799 802 805 811 815 818 821 824 828
792 793 795 796 797 799 800 800 802 802 804 805 805 804 802 802 802 801 802 801 793 789 789 791 792 793 794 796 796 798 798 798 801 802 804 806 807 807 807 810 810 808 810 814 815 820 822 813 801 798 801 806 810 810 812 815 816 817 817 822 822 814 816 816 816 819 818 819 816 812 815 807 797 795 789 788 793 796 801 804 804 806 809 811 815 818 822 825
789 791 794 794 797 799 798 801 802 801 803 803 803 802 802 803 802 802 802 799 793 786 785 786 787 788 789 792 792 795 797 793 794 797 801 803 803 805 805 805 806 807 809 809 808 811 809 802 798 799 804 807 812 813 815 819 818 815 815 819 818 812 815 816 814 819 818 816 816 818 821 807 792 791 785 789 799 802 806 809 809 811 810 812 815 817 820 823
787 790 791 793 796 797 799 802 800 800 801 801 801 800 802 803 802 804 803 800 793 785 786 786 785 784 782 787 790 791 794 792 789 792 796 798 799 802 803 801 803 806 805 804 807 806 801 800 801 803 808 809 811 813 814 818 817 814 809 810 812 809 810 811 812 820 824 820 816 820 826 806 782 780 781 790 801 799 803 808 807 809 810 813 816 818 821 823
785 787 789 792 794 796 800 799 797 800 799 798 798 797 801 802 803 804 803 805 796 783 786 785 782 781 778 784 788 789 796 793 788 791 794 797 797 798 803 801 801 805 801 800 805 803 800 803 804 806 810 811 814 814 810 813 818 817 809 804 808 809 811 814 815 824 828 822 817 821 827 813 790 780 778 786 795 793 799 804 802 803 807 811 814 816 820 823
783 785 787 790 792 794 796 794 794 797 796 796 794 797 801 800 804 804 805 817 798 769 776 782 778 777 776 780 782 788 798 792 790 795 794 797 797 797 802 801 803 806 800 802 811 804 800 807 809 808 811 813 816 813 806 809 816 818 815 811 810 811 815 817 818 825 823 818 820 820 823 823 809 789 778 782 789 786 790 797 797 799 802 806 810 812 817 821
780 783 785 787 789 790 790 791 792 793 793 793 791 797 799 799 806 802 810 826 791 755 767 778 776 776 776 780 779 784 792 788 791 798 795 798 798 798 802 798 799 802 799 806 814 803 799 807 809 809 813 813 812 808 803 806 813 818 820 817 814 816 818 817 820 824 820 824 828 818 819 828 813 787 777 780 783 780 776 779 788 794 798 803 806 809 814 818
777 780 782 785 787 788 789 790 790 790 791 791 792 796 796 801 805 800 816 819 773 751 766 772 777 780 778 784 783 783 788 788 792 797 797 799 798 798 801 797 794 798 799 801 805 803 806 812 808 806 811 809 808 810 809 808 812 819 821 818 819 821 820 821 824 823 824 832 831 817 816 825 808 782 776 780 781 776 767 766 778 788 795 800 803 808 813 816
774 776 779 783 784 786 787 788 788 788 789 790 792 794 796 802 802 808 827 803 756 758 772 769 776 780 780 787 788 786 788 791 795 797 799 799 799 799 800 798 796 799 804 804 804 806 809 814 812 809 808 806 810 819 821 817 815 818 819 818 822 823 822 825 822 823 832 831 820 810 808 818 813 785 770 774 774 767 763 769 779 786 793 798 801 807 811 815
770 772 776 778 779 781 783 784 785 786 788 789 791 794 798 802 802 812 813 774 749 766 773 772 778 777 778 783 785 787 788 792 795 796 799 800 801 803 802 803 803 807 812 811 808 808 810 813 811 809 810 808 812 819 823 823 819 818 817 820 826 825 826 830 825 831 839 824 808 804 800 811 816 788 764 763 765 763 764 771 779 786 791 795 800 805 809 813
766 769 772 774 776 778 778 780 781 784 788 787 790 793 795 806 811 802 783 759 758 765 762 770 777 775 777 776 778 784 787 791 794 792 795 798 801 801 800 799 801 810 815 810 809 810 809 807 805 809 813 810 810 816 823 825 822 820 818 822 830 830 832 834 830 832 831 816 809 809 805 807 801 780 763 758 763 769 770 772 777 783 788 793 799 804 807 811
761 766 769 771 773 775 776 779 781 783 785 785 790 791 795 807 803 781 765 757 759 757 755 764 770 770 774 774 778 784 786 790 791 790 790 792 796 796 795 791 789 798 800 799 807 811 808 803 803 809 810 805 805 808 817 822 821 819 816 820 828 829 833 834 826 822 817 812 814 812 811 809 792 772 761 758 766 775 778 781 781 781 786 793 797 802 806 810
758 762 765 767 770 772 774 778 779 780 783 784 788 793 800 801 780 762 759 754 752 757 759 762 767 772 773 774 779 780 785 790 788 789 791 792 796 795 793 790 786 788 792 796 800 803 806 801 797 800 799 797 798 796 797 804 813 813 805 809 816 816 819 819 814 810 806 810 819 819 813 801 785 771 765 767 776 780 783 787 788 785 787 793 798 802 806 809
754 758 761 764 767 768 771 775 776 779 781 781 785 790 796 787 763 754 753 748 753 761 763 763 768 775 775 777 780 777 781 789 788 791 793 790 790 788 785 785 784 784 791 797 793 793 800 792 784 791 791 790 794 791 787 796 810 810 802 807 811 804 803 806 811 812 811 813 816 818 806 779 766 766 769 777 781 781 786 788 789 790 790 794 799 802 805 808
751 754 758 759 759 760 765 770 772 776 777 779 785 783 774 759 746 744 741 740 750 759 765 768 769 774 775 777 783 780 779 784 787 792 792 788 785 780 776 775 777 779 781 786 786 787 795 792 789 796 794 791 794 791 788 794 804 807 807 809 804 798 800 807 815 817 820 817 800 798 797 776 764 765 767 776 779 781 787 786 787 790 790 795 798 800 804 806
747 749 751 750 751 754 759 764 767 772 774 776 777 770 757 742 734 735 733 734 741 747 756 764 763 766 769 772 778 780 781 783 786 789 788 788 781 772 772 770 768 772 770 773 778 777 782 789 795 797 795 797 800 796 793 793 796 804 810 803 797 803 806 809 815 814 816 812 789 782 786 777 772 769 766 771 775 778 783 784 785 788 790 794 796 799 802 804
740 744 743 741 746 750 754 760 762 766 770 773 771 761 750 739 731 731 731 731 735 740 748 754 753 753 758 762 766 772 778 780 784 786 782 783 774 758 765 770 764 766 766 769 778 775 775 786 795 798 797 801 802 800 800 798 796 801 803 795 797 810 810 809 816 815 811 807 789 777 775 770 766 762 762 764 764 768 776 780 783 785 788 792 793 796 800 802
735 740 736 731 740 747 749 755 759 761 761 764 765 754 738 731 729 728 729 730 732 737 742 743 744 746 748 750 753 763 773 771 775 781 774 774 768 752 754 762 762 764 764 769 778 777 776 783 792 800 801 800 802 802 801 799 800 804 804 797 796 802 802 800 802 800 800 800 790 777 772 764 752 744 748 751 749 754 767 775 778 779 783 787 788 792 796 799
731 734 727 722 734 743 747 753 756 755 750 746 745 736 725 725 728 726 724 726 727 730 735 736 739 743 744 743 744 753 764 763 765 771 765 761 761 753 751 754 758 763 765 770 775 776 779 781 787 802 808 801 798 794 787 784 792 801 804 801 799 799 801 800 794 787 790 793 787 781 772 754 738 733 735 736 738 744 754 765 770 772 777 781 784 787 791 794
728 729 721 719 728 737 745 751 750 748 746 738 730 722 719 721 725 724 722 723 724 725 728 731 733 736 739 742 740 744 756 760 759 762 759 752 751 751 748 747 752 762 770 778 779 774 778 781 783 797 805 796 785 779 777 778 780 786 790 790 791 793 799 805 798 784 784 786 780 780 772 748 736 738 736 732 733 737 745 756 764 767 771 776 780 783 787 790
726 724 717 717 724 732 741 744 741 742 743 734 723 718 717 717 720 723 721 722 725 725 727 730 730 730 733 736 736 738 748 755 755 755 752 746 742 742 741 741 747 756 765 774 774 767 770 778 780 784 786 783 780 780 784 784 781 781 782 780 781 783 787 794 791 782 785 784 775 779 776 752 742 747 746 744 742 741 744 751 757 764 768 772 778 781 784 787
720 718 716 716 718 725 736 738 737 740 737 727 723 721 719 718 719 721 720 722 724 724 728 731 728 728 729 730 733 736 741 747 750 748 746 743 738 734 735 740 747 753 759 765 768 769 773 780 783 780 776 776 781 782 784 785 786 786 782 777 776 774 771 776 779 779 783 779 774 784 778 753 747 753 754 757 756 752 753 753 756 763 768 772 777 780 783 786
716 715 717 717 716 717 723 725 729 735 732 727 728 727 723 720 718 717 717 718 718 721 726 728 726 727 727 727 731 733 736 741 742 740 740 741 738 734 734 738 744 749 751 754 759 767 774 779 785 788 785 784 785 786 786 788 789 782 775 773 773 770 771 776 780 782 780 769 769 778 766 745 747 758 760 760 758 755 757 759 760 763 768 772 776 779 782 784
715 715 715 716 715 712 710 708 715 725 727 727 730 729 726 722 717 714 714 715 715 718 722 722 722 725 727 729 732 731 729 731 734 736 737 738 739 740 738 737 740 742 743 744 748 755 761 766 774 783 784 779 774 771 769 773 779 777 772 771 770 770 773 774 779 784 778 765 764 765 754 744 750 757 757 756 755 754 756 761 765 766 769 772 775 778 780 782
713 713 714 715 713 711 707 705 710 719 725 730 733 729 725 721 715 713 715 717 715 715 716 717 719 724 728 730 732 731 728 727 729 734 737 736 739 744 743 740 738 739 742 744 746 753 760 760 758 759 759 752 745 744 745 751 763 768 767 766 767 767 768 772 777 776 768 765 762 750 744 750 754 753 752 754 754 753 754 760 766 769 771 772 774 777 778 780
711 708 709 712 713 711 710 709 710 713 717 725 726 721 720 719 716 716 718 717 714 714 717 718 719 724 726 725 728 729 728 729 730 731 732 734 739 746 748 746 742 741 744 747 748 754 763 761 751 748 745 736 731 735 740 744 749 752 755 759 762 764 768 773 770 759 757 765 756 737 738 750 750 747 749 751 752 752 751 754 759 764 769 771 773 776 778 779
709 704 701 704 707 709 709 709 709 708 709 715 717 714 716 718 717 716 715 714 713 715 721 723 720 718 715 716 722 727 729 732 731 726 725 729 739 748 750 750 749 747 748 753 755 756 758 754 747 748 747 738 733 737 740 740 740 741 745 749 754 760 764 765 759 751 754 758 743 730 736 741 738 740 743 744 747 748 746 748 753 758 765 770 773 776 777 778
705 703 702 703 703 704 706 707 708 707 705 710 713 711 711 713 712 709 708 713 717 716 718 720 714 710 710 712 718 723 726 728 725 720 719 725 735 743 746 747 750 752 751 754 759 759 755 749 744 747 749 742 738 739 741 744 744 740 740 741 744 749 749 750 751 749 749 744 732 731 736 732 729 732 734 737 741 743 744 748 753 758 764 769 771 773 775 776
702 701 701 704 704 704 706 705 708 710 706 706 707 706 706 705 704 703 702 707 712 712 712 712 706 704 708 711 713 716 714 712 712 711 714 723 732 736 736 734 740 752 755 753 757 759 756 750 745 748 752 745 740 740 742 745 746 743 741 737 735 737 741 746 746 746 748 743 733 737 742 735 727 726 731 738 741 744 748 751 754 759 764 768 770 771 773 774
701 700 699 702 704 704 705 706 708 713 711 706 703 700 701 699 695 697 697 697 700 704 707 706 703 703 707 710 713 712 705 701 702 704 707 715 720 722 724 722 728 745 754 752 753 755 756 755 751 755 757 744 736 741 744 745 750 753 746 734 727 729 735 739 738 736 740 738 738 744 743 733 729 730 737 743 744 746 750 752 756 761 763 767 769 769 771 772
702 702 701 702 702 700 702 705 709 712 708 703 700 698 697 695 692 696 701 698 696 698 700 700 701 705 708 710 708 702 697 699 704 707 709 711 711 712 718 718 719 730 742 747 749 749 751 753 751 756 756 742 734 740 747 753 760 754 734 718 718 725 729 730 729 727 727 729 735 738 730 725 732 735 738 747 750 749 750 753 756 760 763 766 766 766 768 769